Regional Weather Roundup
Issued by NWS

Home | Current Version | Previous Version | Text Only | Print | Product List | Glossary Off
Versions: 1 2 3 4 5 6 7 8 9 10 11 12 13 14 15 16 17 18 19 20 21 22 23 24 25 26 27 28 29 30 31 32 33 34 35 36 37 38 39 40 41 42 43 44 45 46 47 48 49 50

856
ASUS43 KMKX 271000
RWRWI

WISCONSIN REGIONAL WEATHER ROUNDUP
NATIONAL WEATHER SERVICE MILWAUKEE/SULLIVAN WI
500 AM CDT THU APR 27 2017

NOTE: "FAIR" INDICATES FEW OR NO CLOUDS BELOW 12,000 FEET WITH NO
SIGNIFICANT WEATHER AND/OR OBSTRUCTIONS TO VISIBILITY.

WIZ001-002-006>008-014>016-023>028-271100-
NORTHWEST WISCONSIN

CITY           SKY/WX    TMP DP  RH WIND       PRES   REMARKS
SUPERIOR ARPT  CLOUDY    26  25  96 CALM      29.58S FOG
ASHLAND        LGT SNOW  28  26  92 N7        29.55S FOG     WCI  21
HAYWARD        CLOUDY    28  25  88 N8        29.52S WCI  20
SIREN          CLOUDY    30  26  86 CALM      29.55R
CUMBERLAND     CLOUDY    30  28  93 N9        29.51S WCI  22
RICE LAKE      CLOUDY    32  28  87 N8        29.52S WCI  25
CHETEK         CLOUDY    32  29  87 N7        29.50S WCI  26
LADYSMITH      CLOUDY    31  27  84 N10       29.49F WCI  22
EAU CLAIRE     NOT AVBL
MENOMONIE      CLOUDY    34  29  82 N10       29.50S WCI  26
NEW RICHMOND   CLOUDY    33  29  85 N9        29.52S WCI  25
OSCEOLA        CLOUDY    33  29  88 N8        29.56S WCI  25
$$

WIZ003>005-009-010-017-018-271100-
NORTH CENTRAL WISCONSIN

CITY           SKY/WX    TMP DP  RH WIND       PRES   REMARKS
MANITOWISH WTR CLOUDY    28  28 100 N7        29.45S WCI  20
ARBOR VITAE    CLOUDY    32  29  90 N9        29.43S FOG     WCI  24
WOODRUFF       CLOUDY    32  29  90 N9        29.43S FOG     WCI  24
RHINELANDER    FRZ RAIN  31  29  92 N7G17     29.42S WCI  24
EAGLE RIVER    MIX PCPN  29  27  94 N9        29.42S WCI  20
LAND O LAKES   LGT SNOW  28  27  94 N7        29.45S WCI  21
PHILLIPS       CLOUDY    28  26  91 N9        29.45F WCI  19
TOMAHAWK       LGT SNOW  30  28  90 N8        29.43S WCI  22
MEDFORD        MIX PCPN  31  29  90 N9        29.42S WCI  23
MERRILL        MIX PCPN  32  32  99 N9        29.42R WCI  25
$$

WIZ029-030-035-036-043>047-271100-
CENTRAL WISCONSIN

CITY           SKY/WX    TMP DP  RH WIND       PRES   REMARKS
WAUSAU         RAIN      34  33  96 N10       29.38F WCI  26
MOSINEE        LGT RAIN  34  34 100 NW10      29.41S WCI  26
MARSHFIELD     LGT RAIN  34  32  92 N13       29.39F WCI  25
STEVENS POINT  RAIN      36  36 100 NW8       29.39F WCI  29
WAUPACA        RAIN      43  41  93 NW6       29.37F
WAUTOMA        RAIN      41  40  96 NW8       29.37
WISC RAPIDS    LGT RAIN  37  36  96 N10       29.40S WCI  30
CAMP DOUGLAS   RAIN      37  36  93 NW10      29.41S WCI  30
$$

WIZ011>013-019>022-031-037>040-048>050-271100-
NORTHEAST WISCONSIN

CITY           SKY/WX    TMP DP  RH WIND       PRES   REMARKS
ANTIGO         LGT RAIN  33  33  99 N10       29.39S WCI  25
SHAWANO        LGT RAIN  44  41  91 N10       29.37F
OCONTO         CLOUDY    40  39  95 N12       29.36F WCI  34
STURGEON BAY   LGT RAIN  41  41 100 N16       29.33F
GREEN BAY      RAIN      47  47 100 N12       29.33F FOG
MANITOWOC      NOT AVBL
APPLETON       RAIN      43  43 100 NW9       29.32F
CLINTONVILLE   RAIN      41  41 100 N8        29.35F
OSHKOSH        RAIN      44  43  96 NW8       29.32F FOG
$$

WIZ032>034-041-042-053>061-271100-
SOUTHWEST WISCONSIN

CITY           SKY/WX    TMP DP  RH WIND       PRES   REMARKS
LA CROSSE      LGT RAIN  39  35  86 NW13      29.44F WCI  31
SPARTA         LGT RAIN  36  35  97 NW7       29.43F WCI  30
VIROQUA        CLOUDY    37  36  97 NW9       29.42R WCI  30
BOSCOBEL       LGT RAIN  41  38  89 NW8       29.44S
PRAIRIE DU CHI RAIN      39  36  91 W13       29.46S WCI  31
PLATTEVILLE    CLOUDY    40  40 100 W12       29.43R WCI  33
$$

WIZ056-057-062-063-064-067-068-271100-
SOUTH CENTRAL WISCONSIN

CITY           SKY/WX    TMP DP  RH WIND       PRES   REMARKS
REEDSBURG      LGT RAIN  39  39 100 NW7       29.40F WCI  34
BARABOO/DELLS  RAIN      39  38  95 W8        29.40S WCI  34
LONE ROCK      LGT RAIN  41  38  89 NW7       29.41S FOG
MINERAL POINT  RAIN      41  41 100 NW7       29.39F
MADISON        RAIN      41  39  93 NW8       29.36F FOG
MIDDLETON      CLOUDY    42  41  95 NW13      29.38F
WATERTOWN      RAIN      44  44 100 W9        29.34S
MONROE         RAIN      41  41 100 NW10G21   29.36F
JANESVILLE     RAIN      46  46 100 NW10      29.34S
$$

WIZ051-052-058>065-066-070>072-271100-
SOUTHEAST WISCONSIN

CITY           SKY/WX    TMP DP  RH WIND       PRES   REMARKS
MILWAUKEE      LGT RAIN  58  57  97 S9        29.29F FOG
WAUKESHA       RAIN      46  46 100 NW6       29.31F
MILWAUKEE/TIMM RAIN      50  46  87 N6        29.31F
RACINE         RAIN      53  52  96 S13       29.30F VSB 1
KENOSHA        RAIN      57  56  96 SE12      29.29S FOG
FOND DU LAC    RAIN      45  41  86 NW12      29.32F
SHEBOYGAN      LGT RAIN  50  48  93 N7        29.29F FOG
WEST BEND      LGT RAIN  46  46 100 NW6       29.31F
JUNEAU         RAIN      43  42  96 NW8       29.35S
$$

LSZ147-162-271100-
LAKE SUPERIOR

STATION/POSITION TIME  TEMP    WIND        PRES    WAVE
                       AIR SEA DIR/SP/G            HT/PER
                 (UTC) (F)     (DEG/KT/KT) (MB)    (FT/S)
DEVILS ISLAND    0900   27      10/ 11/ 12 1002.0F
SAXON HARBOR     0940   30      20/ 12/ 13 1000.7S
$$

LMZ867-665-643>646-271100-
LAKE MICHIGAN

STATION/POSITION TIME  TEMP    WIND        PRES    WAVE
                       AIR SEA DIR/SP/G            HT/PER
                 (UTC) (F)     (DEG/KT/KT) (MB)    (FT/S)
CHAMBERS ISLAND  0940   41     360/ 10/ 12  993.9F
N MID LAKE BUOY  0850   40 37   30/  6/  8  995.5F   1/ 5
NORTHPORT PIER   0940   39     340/ 13/ 14  994.2F
SISTER BAY       0936   39      10/  9/ 13   N/A
KEWAUNEE LAKESHO 0930   46      10/  5/  8  993.2F
SHEBOYGAN LAKESH 0900   50     350/  8/  8  992.8F
PORT WASHINGTON  0930   50      80/  3/  7  993.9F
MILWAUKEE LAKESH 0930   50      50/  4/  5   N/A
S MID LAKE BUOY  0850   47 42  120/ 12/ 12  994.4F   0
KENOSHA   LAKESH 0900   50     170/ 13/ 15  992.9
$$

TC  - TEMPERATURE IN CELSIUS
VSB - VISIBILITY IN STATUTE MILES
WCI - WIND CHILL INDEX
HX  - HEAT INDEX





USA.gov is the U.S. government's official web portal to all federal, state and local government web resources and services.